Aswan, Egypt

9:45 PM EET on May 23, 2018 (GMT +0200)
Aswan

Weather History for HESN - January, 2013

Change the Weather History Date:

Tuesday, January 29, 2013

  Actual Average Record
Temperature  
Mean Temperature 58 °F -  
Max Temperature 68 °F 75 °F 87 °F (2005)
Min Temperature 48 °F 52 °F 42 °F (2000)
Degree Days  
Heating Degree Days 7    
Growing Degree Days 8 (Base 50)    
Moisture  
Dew Point 38 °F    
Average Humidity 45    
Maximum Humidity 62    
Minimum Humidity 24    
Precipitation  
Precipitation 0.00 in 0.00 in - ()
Sea Level Pressure  
Sea Level Pressure 30.06 in    
Wind  
Wind Speed 10 mph ()    
Max Wind Speed 17 mph    
Max Gust Speed -    
Visibility 5.5 miles    
Events      
Averages and records for this station are not official NWS values.
T = Trace of Precipitation, MM = Missing Value Source: Averaged Metar Reports

Daily Weather History Graph

Daily Weather History Graph

Search for Another Location

Airport or City:

Astronomy

Jan. 29, 2013 Rise Set
Actual Time 6:31 AM EET 5:33 PM EET
Civil Twilight 6:07 AM EET 5:56 PM EET
Nautical Twilight 5:40 AM EET 6:24 PM EET
Astronomical Twilight 5:13 AM EET 6:51 PM EET
Moon 7:45 PM EET (1/29) 7:37 AM EET (1/29)
Length of Visible Light 11h 49m
Length of Day
11h 02m
Waning Gibbous, 95% of the Moon is Illuminated
Jan 29
Waning Gibbous
Feb 3
Last Quarter
Feb 10
New
Feb 17
First Quarter
Feb 25
Full

Hourly Weather History & Observations

Time (EET) Temp. Dew Point Humidity Pressure Visibility Wind Dir Wind Speed Gust Speed Precip Events Conditions
12:00 AM 60.8 °F 39.2 °F 45% 30.06 in 3.7 mi NNW 17.3 mph - N/A   Unknown
1:00 AM 57.2 °F 39.2 °F 51% 30.06 in - NNW 16.1 mph - N/A   Clear
2:00 AM 56 °F 39 °F 40% 30.10 in 6 mi NNW 16.1 mph - -  
2:00 AM 55.4 °F 39.2 °F 54% 30.09 in - NNW 16.1 mph - N/A   Clear
3:00 AM 55.4 °F 39.2 °F 54% 30.06 in - North 15.0 mph - N/A   Clear
4:00 AM 53.6 °F 39.2 °F 58% 30.06 in - North 16.1 mph - N/A   Clear
5:00 AM 51.8 °F 37.4 °F 58% 30.09 in - North 9.2 mph - N/A   Clear
6:00 AM 50.0 °F 37.4 °F 62% 30.12 in - North 5.8 mph - N/A   Clear
7:00 AM 50.0 °F 37.4 °F 62% 30.09 in - Calm Calm - N/A   Clear
8:00 AM 51 °F 37 °F 47% 30.14 in 6 mi North 8.1 mph - -  
8:00 AM 51.8 °F 37.4 °F 58% 30.12 in - North 8.1 mph - N/A   Clear
9:00 AM 53.6 °F 37.4 °F 54% 30.12 in - North 10.4 mph - N/A   Clear
10:00 AM 57.2 °F 37.4 °F 48% 30.09 in - North 9.2 mph - N/A   Clear
11:00 AM 60.8 °F 35.6 °F 39% 30.09 in - North 12.7 mph - N/A   Clear
12:00 PM 62.6 °F 37.4 °F 39% 30.09 in - North 9.2 mph - N/A   Clear
1:00 PM 64.4 °F 37.4 °F 37% 30.04 in - North 8.1 mph - N/A   Clear
2:00 PM 66 °F 38 °F 24% 30.02 in 6 mi North 5.8 mph - -   Clear
2:00 PM 66.2 °F 37.4 °F 35% 30.04 in - North 5.8 mph - N/A   Clear
3:00 PM 66.2 °F 37.4 °F 35% 30.01 in - North 6.9 mph - N/A   Clear
4:00 PM 66.2 °F 37.4 °F 35% 30.01 in - North 6.9 mph - N/A   Clear
5:00 PM 66.2 °F 37.4 °F 35% 30.04 in - North 8.1 mph - N/A   Clear
6:00 PM 64.4 °F 37.4 °F 37% 30.04 in - North 9.2 mph - N/A   Clear
7:00 PM 62.6 °F 37.4 °F 39% 30.04 in - North 9.2 mph - N/A   Clear
8:00 PM 60 °F 36 °F 30% 30.03 in 6 mi NNW 6.9 mph - -  
8:00 PM 60.8 °F 37.4 °F 42% 30.04 in - NNW 6.9 mph - N/A   Clear
9:00 PM 59.0 °F 35.6 °F 42% 30.04 in - North 8.1 mph - N/A   Clear
10:00 PM 57.2 °F 37.4 °F 48% 30.04 in - North 6.9 mph - N/A   Clear
11:00 PM 57.2 °F 37.4 °F 48% 30.04 in - North 5.8 mph - N/A   Clear